When you browse on this site, cookies collect data to enhance your experience and personalize the content and advertising you see.
Visit our Privacy Policy to learn more. By continuing to use the site, you agree to this use of cookies and data.
  • In United Kingdom
  • List of Countries
  • For 7 days
  • Water Temperature
  • Satellite Maps
  • Weather Map
  • Weather Widgets
  • user-avatar
    Login

    Hourly Weather Lampeter

    Today, 24 April, Wednesday

    Time Temperature Precipitation Wind Pressure Humidity
    00:00 +5°C° 0 mm 4 mps 744 mmHg 96%
    01:00 +5°C° 0 mm 4 mps 744 mmHg 96%
    02:00 +5°C° 0 mm 4 mps 743 mmHg 96%
    03:00 +5°C° 0 mm 4 mps 743 mmHg 96%
    04:00 +6°C° 0 mm 4 mps 743 mmHg 95%
    05:00 +6°C° 0 mm 4 mps 742 mmHg 94%
    06:00 +7°C° 0 mm 4 mps 742 mmHg 93%
    07:00 +7°C° 0 mm 5 mps 742 mmHg 93%
    08:00 +8°C° 0 mm 5 mps 741 mmHg 92%
    09:00 +8°C° 0 mm 6 mps 741 mmHg 92%
    10:00 +9°C° 0 mm 6 mps 741 mmHg 90%
    11:00 +9°C° 0 mm 7 mps 741 mmHg 89%
    12:00 +10°C° 0 mm 7 mps 741 mmHg 87%
    13:00 +10°C° 0 mm 7 mps 740 mmHg 88%
    14:00 +10°C° 0 mm 7 mps 740 mmHg 89%
    15:00 +9°C° 0 mm 6 mps 740 mmHg 89%
    16:00 +9°C° 0 mm 6 mps 739 mmHg 90%
    17:00 +9°C° 0 mm 6 mps 739 mmHg 91%
    18:00 +9°C° 0 mm 6 mps 739 mmHg 91%
    19:00 +9°C° 0 mm 5 mps 739 mmHg 93%
    20:00 +9°C° 0 mm 5 mps 739 mmHg 94%
    21:00 +9°C° 0 mm 5 mps 739 mmHg 95%
    22:00 +10°C° 0 mm 4 mps 739 mmHg 94%
    23:00 +10°C° 0 mm 3 mps 739 mmHg 93%

    Tomorrow, 25 April, Thursday

    Time Temperature Precipitation Wind Pressure Humidity
    00:00 +10°C° 0 mm 3 mps 740 mmHg 92%
    01:00 +9°C° 0 mm 3 mps 740 mmHg 92%
    02:00 +9°C° 0 mm 2 mps 740 mmHg 92%
    03:00 +8°C° 0 mm 2 mps 740 mmHg 93%
    04:00 +8°C° 0 mm 2 mps 740 mmHg 93%
    05:00 +8°C° 0 mm 2 mps 741 mmHg 93%
    06:00 +7°C° 0 mm 2 mps 741 mmHg 94%
    07:00 +9°C° 0 mm 3 mps 741 mmHg 86%
    08:00 +11°C° 0 mm 4 mps 741 mmHg 77%
    09:00 +13°C° 0 mm 5 mps 742 mmHg 69%
    10:00 +12°C° 0.1 mm 5 mps 742 mmHg 72%
    11:00 +12°C° 0.1 mm 5 mps 742 mmHg 76%
    12:00 +11°C° 0.1 mm 6 mps 742 mmHg 79%
    13:00 +12°C° 0.2 mm 5 mps 742 mmHg 77%
    14:00 +13°C° 0.2 mm 5 mps 742 mmHg 75%
    15:00 +14°C° 0.2 mm 5 mps 742 mmHg 73%
    16:00 +13°C° 1.1 mm 4 mps 742 mmHg 79%
    17:00 +12°C° 1.1 mm 3 mps 742 mmHg 84%
    18:00 +10°C° 1.1 mm 3 mps 742 mmHg 90%
    19:00 +10°C° 3.3 mm 4 mps 742 mmHg 91%
    20:00 +8°C° 3.3 mm 4 mps 742 mmHg 92%
    21:00 +7°C° 3.3 mm 5 mps 743 mmHg 94%
    22:00 +7°C° 0.5 mm 4 mps 743 mmHg 93%
    23:00 +8°C° 0.5 mm 3 mps 743 mmHg 92%

    Day after tomorrow, 26 April, Friday

    Time Temperature Precipitation Wind Pressure Humidity
    00:00 +8°C° 0.5 mm 2 mps 744 mmHg 91%
    01:00 +7°C° 0 mm 3 mps 744 mmHg 91%
    02:00 +7°C° 0 mm 3 mps 744 mmHg 91%
    03:00 +5°C° 0 mm 4 mps 745 mmHg 91%
    04:00 +5°C° 0.5 mm 4 mps 745 mmHg 91%
    05:00 +5°C° 0.5 mm 5 mps 745 mmHg 91%
    06:00 +5°C° 0.5 mm 6 mps 745 mmHg 91%
    07:00 +7°C° 0.4 mm 5 mps 745 mmHg 89%
    08:00 +7°C° 0.4 mm 5 mps 745 mmHg 88%
    09:00 +8°C° 0.4 mm 4 mps 745 mmHg 86%
    10:00 +10°C° 0.1 mm 4 mps 745 mmHg 81%
    11:00 +11°C° 0.1 mm 4 mps 745 mmHg 77%
    12:00 +12°C° 0.1 mm 4 mps 745 mmHg 73%
    13:00 +12°C° 0.4 mm 4 mps 745 mmHg 74%
    14:00 +12°C° 0.4 mm 4 mps 744 mmHg 75%
    15:00 +12°C° 0.4 mm 5 mps 744 mmHg 77%
    16:00 +11°C° 0.2 mm 4 mps 744 mmHg 79%
    17:00 +11°C° 0.2 mm 3 mps 744 mmHg 82%
    18:00 +12°C° 0.2 mm 2 mps 744 mmHg 84%
    19:00 +10°C° 0.2 mm 2 mps 745 mmHg 87%
    20:00 +9°C° 0.2 mm 3 mps 745 mmHg 89%
    21:00 +7°C° 0.2 mm 4 mps 745 mmHg 92%
    22:00 +8°C° 0 mm 3 mps 745 mmHg 92%
    23:00 +7°C° 0 mm 3 mps 746 mmHg 93%

    27 April, Saturday

    Time Temperature Precipitation Wind Pressure Humidity
    00:00 +5°C° 0 mm 3 mps 746 mmHg 93%
    01:00 +6°C° 0 mm 2 mps 746 mmHg 93%
    02:00 +5°C° 0 mm 2 mps 746 mmHg 93%
    03:00 +5°C° 0 mm 2 mps 746 mmHg 93%
    04:00 +5°C° 0 mm 2 mps 747 mmHg 93%
    05:00 +4°C° 0 mm 3 mps 748 mmHg 93%
    06:00 +5°C° 0 mm 3 mps 748 mmHg 93%
    07:00 +6°C° 0 mm 4 mps 749 mmHg 87%
    08:00 +8°C° 0 mm 4 mps 750 mmHg 81%
    09:00 +9°C° 0 mm 5 mps 750 mmHg 75%
    10:00 +10°C° 0 mm 6 mps 751 mmHg 73%
    11:00 +10°C° 0 mm 7 mps 752 mmHg 72%
    12:00 +10°C° 0 mm 8 mps 753 mmHg 71%
    13:00 +10°C° 0 mm 8 mps 753 mmHg 69%
    14:00 +9°C° 0 mm 8 mps 754 mmHg 66%
    15:00 +9°C° 0 mm 8 mps 755 mmHg 64%
    16:00 +9°C° 0 mm 7 mps 755 mmHg 63%
    17:00 +8°C° 0 mm 7 mps 756 mmHg 61%
    18:00 +8°C° 0 mm 6 mps 757 mmHg 60%
    19:00 +7°C° 0 mm 5 mps 757 mmHg 63%
    20:00 +5°C° 0 mm 5 mps 758 mmHg 66%
    21:00 +4°C° 0 mm 4 mps 759 mmHg 70%
    22:00 +4°C° 0 mm 4 mps 759 mmHg 74%
    23:00 +3°C° 0 mm 3 mps 759 mmHg 78%

    28 April, Sunday

    Time Temperature Precipitation Wind Pressure Humidity
    00:00 +3°C° 0 mm 3 mps 760 mmHg 82%
    01:00 +3°C° 0 mm 3 mps 760 mmHg 84%
    02:00 +3°C° 0 mm 3 mps 760 mmHg 87%
    03:00 +2°C° 0 mm 3 mps 760 mmHg 89%
    04:00 +3°C° 0 mm 3 mps 760 mmHg 88%
    05:00 +4°C° 0 mm 3 mps 760 mmHg 87%
    06:00 +4°C° 0 mm 3 mps 760 mmHg 86%
    07:00 +6°C° 0.2 mm 2 mps 761 mmHg 86%
    08:00 +6°C° 0.2 mm 2 mps 761 mmHg 86%
    09:00 +7°C° 0.2 mm 2 mps 761 mmHg 86%
    10:00 +7°C° 0.2 mm 2 mps 761 mmHg 87%
    11:00 +7°C° 0.2 mm 2 mps 761 mmHg 87%
    12:00 +7°C° 0.2 mm 2 mps 761 mmHg 87%
    13:00 +8°C° 0.1 mm 2 mps 760 mmHg 87%
    14:00 +8°C° 0.1 mm 2 mps 760 mmHg 86%
    15:00 +9°C° 0.1 mm 2 mps 760 mmHg 86%
    16:00 +9°C° 0.1 mm 2 mps 760 mmHg 87%
    17:00 +10°C° 0.1 mm 1 mps 760 mmHg 88%
    18:00 +10°C° 0.1 mm 1 mps 760 mmHg 90%
    19:00 +9°C° 0 mm 1 mps 760 mmHg 91%
    20:00 +9°C° 0 mm 1 mps 760 mmHg 93%
    21:00 +8°C° 0 mm 1 mps 760 mmHg 95%
    22:00 +8°C° 0 mm 1 mps 760 mmHg 95%
    23:00 +7°C° 0 mm 2 mps 760 mmHg 96%

    29 April, Monday

    Time Temperature Precipitation Wind Pressure Humidity
    00:00 +7°C° 0 mm 2 mps 760 mmHg 96%
    01:00 +7°C° 0 mm 2 mps 760 mmHg 96%
    02:00 +7°C° 0 mm 2 mps 760 mmHg 96%
    03:00 +7°C° 0 mm 2 mps 760 mmHg 96%
    04:00 +7°C° 0.1 mm 2 mps 760 mmHg 96%
    05:00 +8°C° 0.1 mm 2 mps 760 mmHg 96%
    06:00 +8°C° 0.1 mm 2 mps 760 mmHg 95%
    07:00 +8°C° 0.2 mm 2 mps 760 mmHg 95%
    08:00 +8°C° 0.2 mm 3 mps 760 mmHg 94%
    09:00 +9°C° 0.2 mm 3 mps 761 mmHg 93%
    10:00 +10°C° 0 mm 3 mps 761 mmHg 90%
    11:00 +11°C° 0 mm 3 mps 761 mmHg 87%
    12:00 +12°C° 0 mm 4 mps 761 mmHg 84%
    13:00 +12°C° 0 mm 4 mps 761 mmHg 83%
    14:00 +12°C° 0 mm 4 mps 761 mmHg 82%
    15:00 +12°C° 0 mm 4 mps 761 mmHg 80%
    16:00 +12°C° 0 mm 4 mps 761 mmHg 78%
    17:00 +11°C° 0 mm 4 mps 761 mmHg 77%
    18:00 +10°C° 0 mm 5 mps 761 mmHg 75%
    19:00 +8°C° 0 mm 4 mps 761 mmHg 79%
    20:00 +7°C° 0 mm 4 mps 761 mmHg 83%
    21:00 +5°C° 0 mm 4 mps 762 mmHg 88%
    22:00 +4°C° 0 mm 3 mps 762 mmHg 89%
    23:00 +3°C° 0 mm 3 mps 762 mmHg 91%
    Show more